Location: Kampung Segan
(3.1399°N, 113.1002°E)
Time: 15:27:53
(UTC+00:00)

Cosmos 1782 Rocket - Pass Details

Date: 05 August 2024
Orbit: 603 x 628 km, 82.5° (Epoch: 10 September)

Event Time Altitude Azimuth Distance (km) Brightness Sun altitude
Exits shadow 21:15:37 - 183° (S) 2,474 6.4 -17.7°
Reaches altitude 10° 21:16:54 10° 183° (S) 1,952 5.9 -17.4°
Maximum altitude 21:21:13 88° 91° (E) 612 3.5 -16.3°
Drops below altitude 10° 21:25:33 10° 4° (N) 1,959 6.4 -15.3°
Sets 21:27:46 0° 4° (N) 2,866 7.3 -14.8°
